FENGYUN 1C DEB

Satellite information

Favourite Embed

Satellite Type and Status

DEBRISIN ORBIT

Key statistics

Satellite FENGYUN 1C DEB at a glance.

Uptime

9661

Days in orbit

Revolutions

≈ 14.3

Per day

Orbit

SSO

Sun Synchronous Orbit

Inclination

98.8

Latest

Satellite identification and parameters

Extended collection of information and parameters for FENGYUN 1C DEB.

Object identification

Identified? True

Debris? True

Object name: FENGYUN 1C DEB

International designator: 1999-025CE

Object number (NORAD): 29788

Object ID (CCSDS): 29788

Country: PEOPLES REPUBLIC OF CHINA (PRC)

Current information (Y/N): Y

RCS size: MEDIUM

Orbital parameters

Period: 101.025 minutes

Inclination: 98.7881 deg

SMA: 7185.303 km

Apoapsis: 835.974 km

Periapsis: 778.363 km

RAAN: 5.4722 deg

Eccentricy: 0.00400894

Argument of periapsis: 343.0792 deg

Mean anomaly: 121.3651 deg

Mean motion: 14.25394639 rev/day

Mean motion (dot): 0.0000575 rev/day2

B* drag term: 0.0024349243 1/REarth

Two-line elements (TLE)

Creation date: Oct. 21, 2025, 3:26 a.m.

Reference frame: TEME

Reference center: EARTH

Epoch: Oct. 20, 2025, 10:56 p.m. UTC

TLE line 0: 0 FENGYUN 1C DEB

TLE line 1: 1 29788U 99025CE 25293.95596605 .00005750 00000-0 24349-2 0 9996

TLE line 2: 2 29788 98.7881 5.4722 0040089 343.0792 121.3651 14.25394639966035

Live tracking on map

Real-time ground track for satellite FENGYUN 1C DEB.

In-orbit conjunctions

A list of the most updated potential collisions computed for object FENGYUN 1C DEB.

Target Orbit TCA Probability of collision Miss distance Type
CZ-6A DEB LEO 2025-02-04 15:36:56 0.0001338453 65.0 (m) DEBRIS
COSMOS 2333 LEO 2025-01-25 09:56:40 0.0001641356 821.0 (m) PAYLOAD

Associated space launch

Chinese polar orbiting meteorological satellite

FENGYUN 1C DEB was lifted into orbit during the mission ‘Long March 4B | Feng Yun 1C’, on board a Long March 4B space rocket.

The launch took place on May 10, 1999, 1:33 a.m. from Launch Complex 7.

For more information about the launch, click the button.

Launch to space Long March 4B | Feng Yun 1C
Long March 4B | Feng Yun 1C

Agency: N/A

Status: Launch Successful

Launch date: May 10, 1999, 1:33 a.m. UTC

Rocket: Long March 4B

Launch pad: Launch Complex 7

Location: Taiyuan Satellite Launch Center, People's Republic of China

...

Latest news about this satellite

There are no fresh news available about this satellite. Check back as we update our databases every day.


Newsletter sign-up

Weekly statistics, charts and insights to help you stay on top of the space industry.